JIA5042 KDCA-KAGS

Flight info

Callsign JIA5042
Flight time N/A
Altitude 36000
Route JDUBB4 RRSIN GSO STWRT3
Aircraft CRJ7/M-SDFGIRWY/S

Departure

Time 2026-04-30 22:47
Airport Ronald Reagan Washington National Airport (KDCA)

Arrival

Time N/A
Airport Augusta Regional At Bush Field (KAGS)
Time Latitude Longitude Altitude Speed Heading
2026-04-30 22:08 38.85741 -77.04286 22 ft 0 kts 340°
2026-04-30 22:32 38.85706 -77.04291 24 ft 4 kts 61°
2026-04-30 22:32 38.85697 -77.04316 25 ft 0 kts 71°
2026-04-30 22:41 38.85718 -77.04237 24 ft 8 kts 71°
2026-04-30 22:41 38.85714 -77.04095 23 ft 9 kts 140°
2026-04-30 22:42 38.85484 -77.03949 22 ft 12 kts 175°
2026-04-30 22:43 38.85297 -77.03930 24 ft 15 kts 175°
2026-04-30 22:43 38.85081 -77.03909 22 ft 13 kts 175°
2026-04-30 22:44 38.84878 -77.03888 22 ft 15 kts 175°
2026-04-30 22:45 38.84432 -77.03844 24 ft 17 kts 175°
2026-04-30 22:45 38.84233 -77.03800 23 ft 14 kts 133°
2026-04-30 22:46 38.84201 -77.03686 22 ft 4 kts 22°
2026-04-30 22:47 38.85076 -77.03782 25 ft 132 kts 350°
2026-04-30 22:47 38.87326 -77.04346 887 ft 196 kts 344°
2026-04-30 22:48 38.90106 -77.05538 1993 ft 227 kts 308°
2026-04-30 22:49 38.90487 -77.11321 3617 ft 239 kts 261°
2026-04-30 22:49 38.93081 -77.15868 5243 ft 224 kts 306°
2026-04-30 22:50 38.95302 -77.22686 7339 ft 226 kts 241°
2026-04-30 22:51 38.92801 -77.25126 8399 ft 236 kts 207°
2026-04-30 22:51 38.89733 -77.26712 9472 ft 242 kts 207°
2026-04-30 22:52 38.88179 -77.27565 9993 ft 243 kts 209°
2026-04-30 22:52 38.84944 -77.29536 10969 ft 277 kts 210°
2026-04-30 22:53 38.81213 -77.31813 12044 ft 316 kts 210°
2026-04-30 22:53 38.77052 -77.34320 13153 ft 350 kts 210°
2026-04-30 22:53 38.74762 -77.35688 13768 ft 362 kts 210°
2026-04-30 22:54 38.70141 -77.38449 14757 ft 372 kts 210°
2026-04-30 22:55 38.63013 -77.42734 16232 ft 383 kts 211°
2026-04-30 22:55 38.58153 -77.45636 17272 ft 389 kts 211°
2026-04-30 22:56 38.53229 -77.48576 18322 ft 393 kts 211°
2026-04-30 22:56 38.45763 -77.53026 19741 ft 395 kts 211°
2026-04-30 22:57 38.40793 -77.55998 20681 ft 394 kts 213°
2026-04-30 22:57 38.36120 -77.59552 21686 ft 390 kts 220°
2026-04-30 22:58 38.31641 -77.63477 22720 ft 393 kts 220°
2026-04-30 22:59 38.25260 -77.69929 24165 ft 394 kts 227°
2026-04-30 22:59 38.18949 -77.76867 25179 ft 405 kts 226°